Location: Nelson
(41.2830°S, 173.2830°E)
Time: 18:25:56
(UTC+12:00)

Cosmos 1980 - Pass Details

Date: 14 May 2021
Orbit: 838 x 848 km, 71.0° (Epoch: 19 June)

Event Time Altitude Azimuth Distance (km) Brightness Sun altitude
Rises 18:07:30 0° 355° (N) 3,396 7.1 -9.4°
Reaches altitude 10° 18:10:01 10° 1° (N) 2,468 6.3 -9.8°
Maximum altitude 18:15:25 48° 73° (ENE) 1,110 4.0 -10.8°
Drops below altitude 10° 18:20:53 10° 145° (SE) 2,490 5.7 -11.8°
Enters shadow 18:21:50 - 147° (SSE) 2,839 6.0 -12.0°
